• In Lithuania
  • List of Countries
  • For 7 days
  • Water Temperature
  • Satellite Maps
  • Weather Map
  • Weather Widgets
  • user-avatar
    Login

    Hourly Weather Lugovka

    Today, 18 June, Monday

    Time Temperature Precipitation Wind Pressure Humidity
    00:00 +15°C° 0 mm 1 mps 747 mmHg 81%
    01:00 +15°C° 0 mm 1 mps 747 mmHg 81%
    02:00 +14°C° 0 mm 1 mps 747 mmHg 81%
    03:00 +14°C° 0 mm 1 mps 747 mmHg 81%
    04:00 +14°C° 0 mm 1 mps 747 mmHg 81%
    05:00 +15°C° 0 mm 1 mps 747 mmHg 80%
    06:00 +16°C° 0 mm 1 mps 747 mmHg 80%
    07:00 +19°C° 0 mm 1 mps 747 mmHg 74%
    08:00 +20°C° 0 mm 1 mps 747 mmHg 69%
    09:00 +22°C° 0 mm 1 mps 747 mmHg 63%
    10:00 +23°C° 0 mm 1 mps 747 mmHg 59%
    11:00 +24°C° 0 mm 1 mps 747 mmHg 54%
    12:00 +25°C° 0 mm 1 mps 747 mmHg 50%
    13:00 +26°C° 0 mm 1 mps 747 mmHg 49%
    14:00 +26°C° 0 mm 1 mps 746 mmHg 48%
    15:00 +26°C° 0 mm 1 mps 746 mmHg 47%
    16:00 +26°C° 0 mm 1 mps 746 mmHg 49%
    17:00 +24°C° 0 mm 0 mps 746 mmHg 51%
    18:00 +24°C° 0 mm 0 mps 746 mmHg 53%
    19:00 +22°C° 0 mm 0 mps 746 mmHg 57%
    20:00 +20°C° 0 mm 0 mps 746 mmHg 61%
    21:00 +18°C° 0 mm 0 mps 746 mmHg 65%
    22:00 +20°C° 0 mm 1 mps 746 mmHg 67%
    23:00 +19°C° 0 mm 1 mps 746 mmHg 69%

    Tomorrow, 19 June, Tuesday

    Time Temperature Precipitation Wind Pressure Humidity
    00:00 +18°C° 0 mm 1 mps 746 mmHg 71%
    01:00 +18°C° 0 mm 1 mps 746 mmHg 73%
    02:00 +16°C° 0 mm 1 mps 746 mmHg 75%
    03:00 +16°C° 0 mm 2 mps 746 mmHg 77%
    04:00 +18°C° 0 mm 1 mps 746 mmHg 78%
    05:00 +18°C° 0 mm 1 mps 746 mmHg 79%
    06:00 +19°C° 0 mm 1 mps 746 mmHg 80%
    07:00 +19°C° 0 mm 2 mps 746 mmHg 76%
    08:00 +21°C° 0 mm 2 mps 746 mmHg 71%
    09:00 +24°C° 0 mm 2 mps 746 mmHg 66%
    10:00 +24°C° 0 mm 2 mps 746 mmHg 64%
    11:00 +25°C° 0 mm 3 mps 746 mmHg 62%
    12:00 +26°C° 0 mm 3 mps 746 mmHg 60%
    13:00 +26°C° 0.1 mm 3 mps 746 mmHg 62%
    14:00 +25°C° 0.1 mm 3 mps 745 mmHg 64%
    15:00 +25°C° 0.1 mm 3 mps 745 mmHg 67%
    16:00 +25°C° 0.3 mm 4 mps 745 mmHg 70%
    17:00 +25°C° 0.3 mm 4 mps 745 mmHg 72%
    18:00 +25°C° 0.3 mm 4 mps 744 mmHg 75%
    19:00 +24°C° 0.1 mm 3 mps 744 mmHg 81%
    20:00 +21°C° 0.1 mm 3 mps 744 mmHg 86%
    21:00 +20°C° 0.1 mm 3 mps 744 mmHg 92%
    22:00 +19°C° 0 mm 3 mps 744 mmHg 92%
    23:00 +19°C° 0 mm 3 mps 744 mmHg 93%

    Day after tomorrow, 20 June, Wednesday

    Time Temperature Precipitation Wind Pressure Humidity
    00:00 +18°C° 0 mm 3 mps 744 mmHg 94%
    01:00 +18°C° 0 mm 3 mps 744 mmHg 94%
    02:00 +18°C° 0 mm 3 mps 744 mmHg 94%
    03:00 +17°C° 0 mm 3 mps 744 mmHg 95%
    04:00 +18°C° 0 mm 3 mps 744 mmHg 93%
    05:00 +18°C° 0 mm 3 mps 745 mmHg 91%
    06:00 +18°C° 0 mm 4 mps 745 mmHg 89%
    07:00 +19°C° 0 mm 4 mps 745 mmHg 83%
    08:00 +21°C° 0 mm 4 mps 745 mmHg 76%
    09:00 +22°C° 0 mm 4 mps 745 mmHg 70%
    10:00 +23°C° 0 mm 5 mps 745 mmHg 67%
    11:00 +25°C° 0 mm 5 mps 745 mmHg 65%
    12:00 +26°C° 0 mm 5 mps 745 mmHg 62%
    13:00 +26°C° 0.1 mm 5 mps 745 mmHg 62%
    14:00 +26°C° 0.1 mm 5 mps 745 mmHg 62%
    15:00 +27°C° 0.1 mm 5 mps 745 mmHg 62%
    16:00 +27°C° 0 mm 5 mps 745 mmHg 65%
    17:00 +26°C° 0 mm 4 mps 745 mmHg 67%
    18:00 +26°C° 0 mm 4 mps 744 mmHg 70%
    19:00 +24°C° 0 mm 3 mps 745 mmHg 74%
    20:00 +21°C° 0 mm 3 mps 745 mmHg 78%
    21:00 +20°C° 0 mm 3 mps 745 mmHg 82%
    22:00 +19°C° 0 mm 3 mps 745 mmHg 85%
    23:00 +18°C° 0 mm 3 mps 745 mmHg 87%

    21 June, Thursday

    Time Temperature Precipitation Wind Pressure Humidity
    00:00 +17°C° 0 mm 3 mps 746 mmHg 89%
    01:00 +16°C° 0 mm 3 mps 746 mmHg 90%
    02:00 +14°C° 0 mm 3 mps 746 mmHg 91%
    03:00 +14°C° 0 mm 3 mps 746 mmHg 93%
    04:00 +14°C° 0 mm 3 mps 746 mmHg 90%
    05:00 +16°C° 0 mm 3 mps 746 mmHg 88%
    06:00 +16°C° 0 mm 3 mps 746 mmHg 86%
    07:00 +18°C° 0 mm 3 mps 746 mmHg 81%
    08:00 +19°C° 0 mm 3 mps 746 mmHg 75%
    09:00 +21°C° 0 mm 3 mps 747 mmHg 69%
    10:00 +22°C° 0 mm 3 mps 747 mmHg 65%
    11:00 +24°C° 0 mm 3 mps 747 mmHg 61%
    12:00 +25°C° 0 mm 4 mps 747 mmHg 57%
    13:00 +25°C° 0 mm 3 mps 746 mmHg 57%
    14:00 +25°C° 0 mm 3 mps 746 mmHg 57%
    15:00 +26°C° 0 mm 3 mps 746 mmHg 57%
    16:00 +25°C° 0 mm 3 mps 746 mmHg 59%
    17:00 +25°C° 0 mm 3 mps 746 mmHg 62%
    18:00 +25°C° 0 mm 2 mps 746 mmHg 64%
    19:00 +23°C° 0 mm 2 mps 746 mmHg 70%
    20:00 +21°C° 0 mm 1 mps 746 mmHg 75%
    21:00 +18°C° 0 mm 0 mps 746 mmHg 80%
    22:00 +19°C° 0 mm 1 mps 746 mmHg 82%
    23:00 +19°C° 0 mm 1 mps 746 mmHg 83%

    22 June, Friday

    Time Temperature Precipitation Wind Pressure Humidity
    00:00 +18°C° 0 mm 1 mps 746 mmHg 84%
    01:00 +18°C° 0 mm 1 mps 746 mmHg 86%
    02:00 +16°C° 0 mm 1 mps 746 mmHg 87%
    03:00 +16°C° 0 mm 2 mps 746 mmHg 89%
    04:00 +17°C° 0 mm 2 mps 746 mmHg 88%
    05:00 +17°C° 0 mm 2 mps 746 mmHg 88%
    06:00 +18°C° 0 mm 2 mps 745 mmHg 87%
    07:00 +19°C° 0 mm 3 mps 745 mmHg 82%
    08:00 +21°C° 0 mm 3 mps 745 mmHg 77%
    09:00 +23°C° 0 mm 4 mps 745 mmHg 72%
    10:00 +25°C° 0 mm 4 mps 745 mmHg 69%
    11:00 +26°C° 0 mm 5 mps 745 mmHg 66%
    12:00 +27°C° 0 mm 5 mps 744 mmHg 63%
    13:00 +27°C° 0 mm 5 mps 744 mmHg 63%
    14:00 +27°C° 0 mm 5 mps 744 mmHg 63%
    15:00 +28°C° 0 mm 5 mps 743 mmHg 63%
    16:00 +28°C° 0 mm 5 mps 743 mmHg 65%
    17:00 +28°C° 0 mm 5 mps 743 mmHg 68%
    18:00 +27°C° 0 mm 4 mps 742 mmHg 71%
    19:00 +26°C° 0 mm 4 mps 742 mmHg 75%
    20:00 +25°C° 0 mm 4 mps 742 mmHg 80%
    21:00 +22°C° 0 mm 4 mps 742 mmHg 84%
    22:00 +22°C° 0 mm 4 mps 742 mmHg 85%
    23:00 +21°C° 0 mm 4 mps 742 mmHg 86%

    23 June, Saturday

    Time Temperature Precipitation Wind Pressure Humidity
    00:00 +20°C° 0 mm 4 mps 742 mmHg 87%
    01:00 +20°C° 0 mm 4 mps 742 mmHg 85%
    02:00 +20°C° 0 mm 4 mps 742 mmHg 84%
    03:00 +20°C° 0 mm 4 mps 742 mmHg 83%
    04:00 +20°C° 0 mm 4 mps 742 mmHg 83%
    05:00 +20°C° 0 mm 4 mps 742 mmHg 83%
    06:00 +20°C° 0 mm 4 mps 742 mmHg 83%
    07:00 +21°C° 0.4 mm 4 mps 742 mmHg 81%
    08:00 +23°C° 0.4 mm 5 mps 742 mmHg 80%
    09:00 +25°C° 0.4 mm 5 mps 742 mmHg 78%
    10:00 +26°C° 1.1 mm 4 mps 742 mmHg 75%
    11:00 +27°C° 1.1 mm 4 mps 742 mmHg 72%
    12:00 +27°C° 1.1 mm 4 mps 742 mmHg 69%
    13:00 +27°C° 1 mm 3 mps 742 mmHg 68%
    14:00 +27°C° 1 mm 3 mps 742 mmHg 68%
    15:00 +27°C° 1 mm 3 mps 742 mmHg 68%
    16:00 +26°C° 1.9 mm 2 mps 742 mmHg 74%
    17:00 +25°C° 1.9 mm 2 mps 742 mmHg 81%
    18:00 +24°C° 1.9 mm 1 mps 742 mmHg 87%
    19:00 +23°C° 0.9 mm 1 mps 742 mmHg 89%
    20:00 +21°C° 0.9 mm 2 mps 742 mmHg 90%
    21:00 +20°C° 0.9 mm 2 mps 742 mmHg 91%
    22:00 +20°C° 0.4 mm 2 mps 742 mmHg 92%
    23:00 +19°C° 0.4 mm 2 mps 742 mmHg 93%
    Show more